Tracking 19564 objects as of 18-Mar-2019
HD Live streaming from Space Station
objects crossing your sky now

SOMP-2

Track SOMP-2 now!
10-day predictions
SOMP-2 is classified as:


NORAD ID: 42701
Int'l Code: 1998-067LJ
Perigee: 199.4 km
Apogee: 208.3 km
Inclination: 51.6 °
Period: 88.4 minutes
Semi major axis: 6574 km
RCS: Unknown
Launch date: November 20, 1998
Source: Germany (GER)
Launch site: TYURATAM MISSILE AND SPACE COMPLEX (TTMTR)

Uplink (MHz):
Downlink (MHz): 437.405
Beacon (MHz):
Mode: 9600bps GMSK
Call sign:
Status: Inactive

aabbcc
Your satellite tracking list
Your tracking list is empty




NASA's NSSDC Master Catalog

Two Line Element Set (TLE):
1 42701U 98067LJ  19077.53274600  .03336524  12053-4  81681-3 0  9993
2 42701  51.6238   9.5009 0006710 212.2420 147.8192 16.28449439105436
Source of the keplerian elements: AMSAT